User: anonymous   Login
Location: Via Auriletto, 13, 10098 Rivoli TO, Italia
(45.0746°N, 7.5214°E)
Time: 04:01:03
(UTC+02:00)
Language:

AIST 2D - Orbit

View from above orbital plane
View from above orbital plane
View from above satellite
View from above satellite

Ground track
Ground track

The orbit data is extracted from the following two-line orbital elements,

1 41465U 16026B   19140.80795355  .00001372  00000-0  44378-4 0  9995
2 41465  97.1931  36.9319 0009722 220.6429 223.8352 15.33704903171074
Epoch (UTC): 20 May 2019 19:23:27
Eccentricity: 0.0009722
inclination: 97.1931°
perigee height: 458 km
apogee height: 471 km
right ascension of ascending node: 36.9319°
argument of perigee: 220.6429°
revolutions per day: 15.33704903
mean anomaly at epoch: 223.8352°
orbit number at epoch: 17107

The dashed part of the orbit path shows where the satellite is in the earth's shadow,  

DLR